Location: Catstown
(52.4386°N, 7.2633°W)
Time: 03:57:02
(UTC+00:00)

Cosmos 990 Rocket - Pass Details

Date: 18 September 2020
Orbit: 747 x 769 km, 74.0° (Epoch: 18 October)

Event Time Altitude Azimuth Distance (km) Brightness Sun altitude
Rises 19:38:57 0° 208° (SSW) 3,181 7.4 -10.3°
Reaches altitude 10° 19:41:19 10° 210° (SSW) 2,261 6.6 -10.6°
Maximum altitude 19:46:26 77° 296° (WNW) 773 4.2 -11.4°
Drops below altitude 10° 19:51:36 10° 23° (NNE) 2,281 6.4 -12.1°
Sets 19:53:59 0° 25° (NNE) 3,211 7.2 -12.5°
